Home   Weather   Port-aux-Francais   Past weeks
Flag for French Southern Territories

Past Weather in Port-aux-Francais, French Southern Territories — Yesterday and Last 2 Weeks

Now
47 °F

Cool.


Feels Like: 38 °F
Forecast: 38 / 32 °F
Wind: 25 mph from Northwest

Location: Port-Aux-Francais Iles Kerguelen

Current Time: Oct 14, 2019 at 10:47:35 am

Latest Report: Oct 14, 2019 at 10:00 am


Visibility: N/A

Pressure: 29.73 "Hg

Humidity: 79%

Dew Point: 40 °F

Location of Port-aux-FrancaisLocation

Past Weather in Port-aux-Francais — Graph

°F

Port-aux-Francais Temperature Yesterday

Maximum temperature yesterday: 55 °F (at 11:00 am)
Minimum temperature yesterday: 44 °F (at 6:00 am)
Average temperature yesterday: 49 °F

High & Low Weather Summary for the Past Weeks

 TemperatureHumidityPressure
High57 °F (Oct 5, 2:00 pm)95% (Sep 29, 3:00 pm)30.21 "Hg (Sep 29, 3:00 pm)
Low27 °F (Sep 30, 4:00 am)43% (Oct 10, 5:00 pm)28.56 "Hg (Sep 29, 12:00 pm)
Average39 °F72%29.74 "Hg
* Reported Sep 29 9:00 am — Oct 14 9:00 am, Port-aux-Francais. Weather by CustomWeather, © 2019

Note: Actual official high and low records may vary slightly from our data, if they occured in-between our weather recording intervals... More about our weather records

Advertising

Port-aux-Francais Weather History for the Previous 24 Hours

Scroll right to see more
 ConditionsComfort  
Time TempWeatherWind HumidityBarometerVisibility
9:00 am
Mon, Oct 14
46 °FCool.25 mph79%29.74 "HgN/A
8:00 am44 °FQuite cool.25 mph84%29.76 "HgN/A
7:00 am44 °FQuite cool.16 mph86%29.79 "HgN/A
6:00 am43 °FQuite cool.8 mph85%29.80 "HgN/A
5:00 am44 °FQuite cool.10 mph83%29.81 "HgN/A
4:00 am44 °FQuite cool.17 mph84%29.82 "HgN/A
3:00 am45 °FQuite cool.24 mph83%29.83 "HgN/A
2:00 am46 °FCool.12 mph78%29.84 "HgN/A
1:00 am48 °FCool.2 mph75%29.86 "HgN/A
12:00 am49 °FCool.3 mph73%29.87 "HgN/A
11:00 pm
Sun, Oct 13
48 °FCool.17 mph77%29.87 "HgN/A
10:00 pm48 °FCool.15 mph80%29.88 "HgN/A
9:00 pm47 °FCool.14 mph80%29.89 "HgN/A
8:00 pm47 °FCool.8 mph77%29.89 "HgN/A
7:00 pm47 °FCool.16 mph74%29.88 "HgN/A
6:00 pm49 °FCool.13 mph72%29.88 "HgN/A
5:00 pm50 °FCool.17 mph69%29.88 "HgN/A
4:00 pm52 °FCool.17 mph66%29.88 "HgN/A
3:00 pm53 °FCool.18 mph63%29.88 "HgN/A
2:00 pm54 °FCool.24 mph60%29.87 "HgN/A
1:00 pm54 °FCool.24 mph60%29.87 "HgN/A
12:00 pm54 °FCool.26 mph61%29.86 "HgN/A
11:00 am55 °FCool.28 mph62%29.85 "HgN/A
10:00 am52 °FCool.26 mph65%29.87 "HgN/A
Weather by CustomWeather, © 2019

See weather overview